Stündliche Wetter Abbasanta

Heute, 22 Juni, Dienstag

Zeit Temperatur Niederschläge Wind Luftdruck Luftfeuchtigkeit
00:00 +18°C° 0 mm 0 m/S 730 mmHg 73%
01:00 +17°C° 0 mm 0 m/S 729 mmHg 71%
02:00 +17°C° 0 mm 0 m/S 729 mmHg 72%
03:00 +17°C° 0 mm 0 m/S 729 mmHg 72%
04:00 +18°C° 0 mm 1 m/S 729 mmHg 72%
05:00 +18°C° 0 mm 0 m/S 730 mmHg 64%
06:00 +20°C° 0 mm 0 m/S 730 mmHg 56%
07:00 +22°C° 0 mm 0 m/S 730 mmHg 47%
08:00 +26°C° 0 mm 1 m/S 730 mmHg 42%
09:00 +28°C° 0 mm 2 m/S 730 mmHg 37%
10:00 +31°C° 0 mm 2 m/S 731 mmHg 32%
11:00 +31°C° 0 mm 3 m/S 731 mmHg 31%
12:00 +33°C° 0 mm 3 m/S 731 mmHg 31%
13:00 +34°C° 0 mm 4 m/S 731 mmHg 30%
14:00 +34°C° 0 mm 4 m/S 731 mmHg 30%
15:00 +33°C° 0 mm 4 m/S 731 mmHg 30%
16:00 +33°C° 0 mm 3 m/S 731 mmHg 30%
17:00 +31°C° 0 mm 3 m/S 731 mmHg 36%
18:00 +29°C° 0 mm 3 m/S 731 mmHg 42%
19:00 +27°C° 0 mm 2 m/S 731 mmHg 48%
20:00 +25°C° 0 mm 2 m/S 731 mmHg 55%
21:00 +23°C° 0 mm 1 m/S 731 mmHg 62%
22:00 +21°C° 0 mm 1 m/S 731 mmHg 69%
23:00 +21°C° 0 mm 1 m/S 731 mmHg 70%

Morgen, 23 Juni, Mittwoch

Zeit Temperatur Niederschläge Wind Luftdruck Luftfeuchtigkeit
00:00 +21°C° 0 mm 1 m/S 731 mmHg 71%
01:00 +20°C° 0 mm 1 m/S 731 mmHg 72%
02:00 +20°C° 0 mm 1 m/S 731 mmHg 71%
03:00 +20°C° 0 mm 1 m/S 731 mmHg 71%
04:00 +20°C° 0 mm 1 m/S 731 mmHg 70%
05:00 +22°C° 0 mm 1 m/S 731 mmHg 64%
06:00 +23°C° 0 mm 1 m/S 731 mmHg 58%
07:00 +25°C° 0 mm 1 m/S 731 mmHg 52%
08:00 +27°C° 0 mm 1 m/S 731 mmHg 48%
09:00 +29°C° 0 mm 1 m/S 731 mmHg 44%
10:00 +30°C° 0 mm 2 m/S 732 mmHg 39%
11:00 +31°C° 0 mm 3 m/S 732 mmHg 38%
12:00 +33°C° 0 mm 4 m/S 732 mmHg 37%
13:00 +34°C° 0 mm 5 m/S 732 mmHg 36%
14:00 +33°C° 0 mm 4 m/S 732 mmHg 38%
15:00 +31°C° 0 mm 3 m/S 732 mmHg 40%
16:00 +30°C° 0 mm 3 m/S 732 mmHg 42%
17:00 +29°C° 0 mm 2 m/S 732 mmHg 46%
18:00 +27°C° 0 mm 2 m/S 732 mmHg 49%
19:00 +26°C° 0 mm 2 m/S 733 mmHg 52%
20:00 +24°C° 0 mm 2 m/S 733 mmHg 58%
21:00 +23°C° 0 mm 1 m/S 733 mmHg 64%
22:00 +21°C° 0 mm 1 m/S 733 mmHg 69%
23:00 +20°C° 0 mm 1 m/S 733 mmHg 70%

übermorgen, 24 Juni, Donnerstag

Zeit Temperatur Niederschläge Wind Luftdruck Luftfeuchtigkeit
00:00 +20°C° 0 mm 1 m/S 733 mmHg 71%
01:00 +19°C° 0 mm 1 m/S 733 mmHg 72%
02:00 +19°C° 0 mm 1 m/S 733 mmHg 76%
03:00 +19°C° 0 mm 1 m/S 733 mmHg 79%
04:00 +18°C° 0 mm 1 m/S 733 mmHg 82%
05:00 +20°C° 0 mm 1 m/S 733 mmHg 74%
06:00 +21°C° 0 mm 1 m/S 734 mmHg 67%
07:00 +23°C° 0 mm 1 m/S 734 mmHg 60%
08:00 +26°C° 0 mm 1 m/S 734 mmHg 51%
09:00 +28°C° 0 mm 2 m/S 734 mmHg 43%
10:00 +31°C° 0 mm 2 m/S 734 mmHg 34%
11:00 +33°C° 0 mm 3 m/S 734 mmHg 34%
12:00 +33°C° 0 mm 4 m/S 734 mmHg 34%
13:00 +34°C° 0 mm 5 m/S 734 mmHg 34%
14:00 +34°C° 0 mm 5 m/S 734 mmHg 35%
15:00 +33°C° 0 mm 5 m/S 734 mmHg 35%
16:00 +33°C° 0 mm 5 m/S 734 mmHg 36%
17:00 +30°C° 0 mm 4 m/S 734 mmHg 40%
18:00 +29°C° 0 mm 3 m/S 734 mmHg 45%
19:00 +27°C° 0 mm 2 m/S 734 mmHg 49%
20:00 +25°C° 0 mm 2 m/S 734 mmHg 56%
21:00 +24°C° 0 mm 2 m/S 734 mmHg 63%
22:00 +21°C° 0 mm 2 m/S 734 mmHg 70%
23:00 +20°C° 0.1 mm 2 m/S 734 mmHg 74%

25 Juni, Freitag

Zeit Temperatur Niederschläge Wind Luftdruck Luftfeuchtigkeit
00:00 +21°C° 0.1 mm 1 m/S 735 mmHg 77%
01:00 +20°C° 0.1 mm 1 m/S 735 mmHg 81%
02:00 +20°C° 0 mm 1 m/S 734 mmHg 80%
03:00 +19°C° 0 mm 2 m/S 734 mmHg 80%
04:00 +18°C° 0 mm 2 m/S 733 mmHg 80%
05:00 +20°C° 0 mm 2 m/S 734 mmHg 74%
06:00 +22°C° 0 mm 1 m/S 734 mmHg 68%
07:00 +23°C° 0 mm 1 m/S 735 mmHg 62%
08:00 +26°C° 0.1 mm 1 m/S 735 mmHg 53%
09:00 +28°C° 0.1 mm 2 m/S 734 mmHg 45%
10:00 +30°C° 0.1 mm 2 m/S 734 mmHg 36%
11:00 +31°C° 0 mm 3 m/S 734 mmHg 34%
12:00 +34°C° 0 mm 4 m/S 734 mmHg 33%
13:00 +35°C° 0 mm 5 m/S 734 mmHg 31%
14:00 +34°C° 0 mm 5 m/S 734 mmHg 31%
15:00 +34°C° 0 mm 5 m/S 733 mmHg 31%
16:00 +34°C° 0 mm 5 m/S 733 mmHg 31%
17:00 +32°C° 0 mm 4 m/S 733 mmHg 34%
18:00 +30°C° 0 mm 4 m/S 733 mmHg 36%
19:00 +29°C° 0 mm 3 m/S 733 mmHg 38%
20:00 +26°C° 0 mm 3 m/S 733 mmHg 45%
21:00 +24°C° 0 mm 2 m/S 734 mmHg 51%
22:00 +20°C° 0 mm 2 m/S 734 mmHg 58%
23:00 +20°C° 0 mm 2 m/S 734 mmHg 59%

26 Juni, Samstag

Zeit Temperatur Niederschläge Wind Luftdruck Luftfeuchtigkeit
00:00 +19°C° 0 mm 2 m/S 734 mmHg 60%
01:00 +20°C° 0 mm 1 m/S 734 mmHg 60%
02:00 +18°C° 0 mm 2 m/S 734 mmHg 58%
03:00 +18°C° 0 mm 2 m/S 733 mmHg 56%
04:00 +18°C° 0 mm 2 m/S 733 mmHg 53%
05:00 +20°C° 0 mm 2 m/S 733 mmHg 47%
06:00 +23°C° 0 mm 2 m/S 734 mmHg 40%
07:00 +25°C° 0 mm 2 m/S 734 mmHg 33%
08:00 +27°C° 0 mm 2 m/S 734 mmHg 29%
09:00 +30°C° 0 mm 2 m/S 734 mmHg 24%
10:00 +32°C° 0 mm 2 m/S 734 mmHg 19%
11:00 +34°C° 0 mm 3 m/S 734 mmHg 20%
12:00 +35°C° 0 mm 3 m/S 734 mmHg 20%
13:00 +36°C° 0 mm 4 m/S 734 mmHg 20%
14:00 +35°C° 0 mm 4 m/S 734 mmHg 21%
15:00 +35°C° 0 mm 5 m/S 733 mmHg 23%
16:00 +35°C° 0 mm 5 m/S 733 mmHg 24%
17:00 +33°C° 0 mm 4 m/S 733 mmHg 27%
18:00 +30°C° 0 mm 4 m/S 733 mmHg 31%
19:00 +29°C° 0 mm 3 m/S 733 mmHg 34%
20:00 +26°C° 0 mm 3 m/S 733 mmHg 40%
21:00 +24°C° 0 mm 2 m/S 734 mmHg 47%
22:00 +21°C° 0 mm 2 m/S 734 mmHg 54%
23:00 +21°C° 0 mm 1 m/S 734 mmHg 54%

27 Juni, Sonntag

Zeit Temperatur Niederschläge Wind Luftdruck Luftfeuchtigkeit
00:00 +21°C° 0 mm 1 m/S 734 mmHg 55%
01:00 +20°C° 0 mm 1 m/S 734 mmHg 56%
02:00 +20°C° 0 mm 1 m/S 733 mmHg 55%
03:00 +19°C° 0 mm 2 m/S 733 mmHg 55%
04:00 +19°C° 0 mm 2 m/S 733 mmHg 54%
05:00 +21°C° 0 mm 2 m/S 733 mmHg 48%
06:00 +24°C° 0 mm 2 m/S 733 mmHg 42%
07:00 +26°C° 0 mm 2 m/S 733 mmHg 36%
08:00 +28°C° 0 mm 2 m/S 733 mmHg 31%
09:00 +31°C° 0 mm 2 m/S 734 mmHg 25%
10:00 +34°C° 0 mm 2 m/S 734 mmHg 20%
11:00 +35°C° 0 mm 3 m/S 734 mmHg 20%
12:00 +36°C° 0 mm 4 m/S 734 mmHg 20%
13:00 +36°C° 0 mm 5 m/S 734 mmHg 20%
14:00 +36°C° 0 mm 5 m/S 734 mmHg 22%
15:00 +35°C° 0 mm 5 m/S 734 mmHg 23%
16:00 +35°C° 0 mm 5 m/S 734 mmHg 25%
17:00 +33°C° 0 mm 5 m/S 734 mmHg 30%
18:00 +30°C° 0 mm 4 m/S 734 mmHg 35%
19:00 +29°C° 0 mm 3 m/S 734 mmHg 40%
20:00 +26°C° 0 mm 3 m/S 734 mmHg 46%
21:00 +24°C° 0 mm 2 m/S 734 mmHg 52%
22:00 +21°C° 0 mm 2 m/S 734 mmHg 58%
23:00 +21°C° 0 mm 2 m/S 734 mmHg 56%
Mehr zeigen

Wir brauchen deine Erlaubnis

Meteoprog und unser Service Anbieter werden persönliche Daten aufbewahren, so wie Cookies, Geräte Bezeichnung oder ähnliche Technologien von deinem Gerät und Prozess, so wie Persönliche Daten Inhalte und Werbungen, genauso wie social Media und den Verkehr zu analysieren.

  • Aufbewahrung und/oder Zugang zu deiner Geräte Informationen.

    Cookies, Geräte Bezeichnung oder andere Informationen, können aufbewahrt oder Zugang zu deinem Gerät erhalten, für den Grund, der oben angegeben wird.

  • Personalisierte Werbung und Inhalte, Messungen, Einblick in das Publikum und Produkt Entwicklung.

    Werbungen und Inhalte können personalisiert werden, basierend auf ein Profil. Mehr Daten können besser personalisierte Werbungen und Inhalte hinzufügen. Werbung und Inhalte können gezeigt und gemessen werden. Einblicke über das Publikum, welche die Werbung gesehen haben und den Inhalt, können abgeleitet werden. So wie Daten können genutzt werden, um es zu verbessern oder die Benutzer Erfahrung zu verbessern das System und die Software.

Wenn du “Ich stimme zu” klickst, erlaubst du uns, die Cookies zu benutzen die Geräte Bezeichnung, den Web oder ähnliche Technologien zu benutzen. Deine Settings, können in deinem Gerät bei deinem Browser geändert werden.

Für den bestimmten Zweck, berechtigten Interessen beruhen darauf, mehr als auf den Inhalt. Du kannst mehr darüber in unseren Privaten und Cookie Politik lesen.